[[{"header":{"parameterUnit":"m.s-1","parameterCategory":1,"la1":30.2991,"la2":30.254,"lo1":-89.0895,"lo2":-89.0444,"dy":0.0017,"dx":0.0017,"nx":28,"ny":28,"refTime":"2025-03-25T21:00:00:Z","depth":0,"parameterNumber":2,"parameterNumberName":"U-component_of_WINDS"},"data":[0,0,0,0,0,0,0,0,0,0,0,0,0,0,0,0,0,0,0,0,0,0,0,0,0,0,0,0,0,0,0,0,0,0,0,0,0,0,0,0,0,0,0,0,0,0,0,0,0,0,0,0,0,0,0,0,0,0,0.5181,0.5181,0,0.5196,0.5196,0.5196,0.5178,0.5178,0.5177,0.5177,0.5191,0.5192,0.5193,0,0,0,0,0,0,0,0,0,0,0,0,0,0.5137,0.5138,0.5181,0.5181,0.5181,0.5196,0.5196,0.5196,0.5179,0.5178,0.5177,0.5176,0.5191,0.5192,0.5193,0,0,0,0,0,0,0,0,0,0,0,0,0,0.5155,0.5139,0.5181,0.5174,0.5174,0.5196,0.5196,0.5196,0.5179,0.5178,0.5177,0.5176,0.519,0.5192,0.5193,0.5222,0,0,0.5198,0.5198,0,0,0,0,0,0,0,0,0.5154,0.5156,0.5175,0.5175,0.5174,0.5184,0.5186,0.5205,0.5179,0.5177,0.5177,0.5175,0.519,0.5191,0.5196,0.5223,0.5223,0.5198,0.5199,0.5199,0.52,0,0,0,0,0,0,0,0.5152,0.5155,0.5187,0.5175,0.5175,0.5171,0.5172,0.5189,0.5188,0.5177,0.5176,0.5178,0.5189,0.5195,0.5196,0.5223,0.5198,0.5199,0.52,0.5201,0.5275,0.5276,0,0,0,0,0,0,0.5152,0.5155,0.5186,0.5187,0.5161,0.5172,0.5174,0.5182,0.5188,0.5188,0.5179,0.5177,0.5192,0.5194,0.5197,0.5231,0.5199,0.5201,0.5202,0.5274,0.5276,0.5277,0,0,0,0,0,0,0.5151,0.5155,0.5186,0.5171,0.5174,0.5174,0.5183,0.5183,0.5188,0.5189,0.5189,0.5184,0.5192,0.5194,0.5216,0.5232,0.5202,0.5203,0.5273,0.5275,0.5276,0.5301,0,0,0,0,0,0,0.515,0.5155,0.5166,0.5171,0.5175,0.5205,0.5184,0.5184,0.5191,0.5189,0.5195,0.5195,0.5191,0.5214,0.5218,0.5233,0.5204,0.5272,0.5274,0.5276,0.5299,0.5303,0.5307,0,0,0,0,0,0.5149,0.5172,0.5167,0.517,0.5189,0.5206,0.5208,0.5204,0.5192,0.5203,0.5204,0.5195,0.5229,0.5216,0.522,0.5236,0.5271,0.5273,0.5275,0.5297,0.5302,0.5307,0,0,0,0,0,0,0.5168,0.5173,0.5167,0.5192,0.5199,0.5203,0.5217,0.521,0.522,0.5217,0.5211,0.5213,0.5236,0.5238,0.5224,0.5265,0.5248,0.5251,0.5263,0.5268,0.5272,0.5272,0.5205,0,0,0,0,0,0.5176,0.519,0.5192,0.5215,0.5219,0.5217,0.5225,0.5221,0.5227,0.523,0.5232,0.5239,0.5251,0.526,0.5271,0.5299,0.53,0.5312,0.5316,0.5319,0.5323,0.5338,0.5344,0.5285,0.5285,0.5285,0,0,0.5191,0.5195,0.5204,0.5219,0.5224,0.5238,0.522,0.5236,0.5247,0.5232,0.5253,0.5255,0.5262,0.5287,0.5298,0.529,0.5339,0.5322,0.5325,0.5327,0.5341,0.5347,0.5352,0.5286,0.5286,0.5286,0,0,0.5227,0.5231,0.5251,0.5256,0.5264,0.5263,0.5267,0.5273,0.5273,0.5294,0.5284,0.5297,0.5318,0.5324,0.5329,0.5367,0.5359,0.5371,0.5393,0.5408,0.5413,0.5417,0.5432,0.5437,0.5374,0.5374,0.5374,0,0.5246,0.5267,0.5262,0.5279,0.5286,0.5274,0.5294,0.5299,0.531,0.5315,0.5305,0.5332,0.5336,0.5362,0.5372,0.5376,0.5382,0.5371,0.5413,0.5417,0.5421,0.5435,0.544,0.5376,0.5376,0.5375,0.5375,0,0.529,0.5305,0.532,0.5331,0.534,0.5358,0.5356,0.5365,0.536,0.536,0.5382,0.5386,0.5398,0.5404,0.5399,0.543,0.5424,0.5414,0.5397,0.5428,0.5441,0.5446,0.5378,0.5377,0.5377,0.5377,0,0,0.5339,0.5348,0.5353,0.5359,0.5366,0.5378,0.5395,0.5408,0.5416,0.5424,0.5439,0.5457,0.5448,0.5454,0.545,0.5463,0.5494,0.5451,0.5451,0.546,0.5529,0.5538,0.5544,0.5488,0.5489,0.549,0.5529,0,0.5376,0.5408,0.5403,0.5434,0.5448,0.5437,0.5452,0.5458,0.5459,0.5471,0.5471,0.5485,0.547,0.5474,0.5487,0.5488,0.5508,0.5485,0.5503,0.5504,0.5503,0.5551,0.556,0.5597,0.5534,0.5535,0.5536,0,0.5424,0.5434,0.5466,0.5471,0.5477,0.5491,0.5503,0.5514,0.5521,0.552,0.5528,0.5521,0.5539,0.5521,0.5546,0.553,0.5537,0.5539,0.554,0.5542,0.5522,0.5556,0.5608,0.5614,0.5543,0.5543,0.5542,0,0.5458,0.5479,0.5501,0.5506,0.5513,0.5523,0.5527,0.5532,0.554,0.555,0.5555,0.5567,0.5573,0.5582,0.5579,0.5566,0.5605,0.5586,0.5605,0.5605,0.5615,0.5614,0.567,0.5617,0.5617,0.5617,0.5617,0,0.55,0.5521,0.5517,0.5531,0.5553,0.5548,0.557,0.5572,0.5577,0.5591,0.5581,0.5594,0.5589,0.5601,0.5599,0.562,0.5623,0.5623,0.5622,0.5625,0.5625,0.563,0.5628,0.5619,0.5618,0.5618,0.5618,0,0.5543,0.5541,0.5565,0.5569,0.5571,0.5588,0.5591,0.5604,0.5604,0.5622,0.5625,0.5625,0.5639,0.5636,0.5652,0.5651,0.5678,0.5673,0.5676,0.5675,0.5695,0.5694,0.5757,0.5766,0.5706,0.5707,0.5707,0,0.5571,0.5586,0.5593,0.5601,0.5606,0.562,0.5628,0.5623,0.5632,0.5641,0.5653,0.5667,0.5677,0.5701,0.5702,0.5714,0.5711,0.5732,0.5713,0.5715,0.5712,0.5712,0.5714,0.5736,0.5737,0.5738,0.5738,0,0.5621,0.5619,0.5631,0.5644,0.5654,0.5663,0.5671,0.5679,0.5674,0.5685,0.57,0.5708,0.5725,0.5739,0.575,0.5753,0.5746,0.5744,0.5749,0.5752,0.5754,0.5754,0.5688,0.5743,0.5742,0.5742,0.5742,0.5742,0.5657,0.5671,0.5678,0.5692,0.5698,0.5706,0.5718,0.5719,0.5732,0.5745,0.5741,0.5759,0.5765,0.578,0.5784,0.5798,0.579,0.5797,0.5799,0.5801,0.5804,0.5751,0.5799,0.5799,0.5799,0.5799,0.5799,0,0.5708,0.5712,0.5725,0.5737,0.5748,0.5739,0.5748,0.5758,0.5773,0.578,0.5791,0.5808,0.5822,0.5824,0.5837,0.5847,0.5844,0.5851,0.585,0.5852,0.581,0.5805,0.5853,0.5853,0.5853,0.5853,0.5853,0.5853,0.5736,0.5758,0.5757,0.5783,0.5786,0.5804,0.5809,0.5817,0.5822,0.5842,0.5854,0.5855,0.586,0.5873,0.5885,0.5885,0.5891,0.5899,0.5898,0.586,0.5854,0.5849,0.5844,0.59,0.59,0.5939,0.5939,0.5939]},{"header":{"parameterUnit":"m.s-1","parameterCategory":1,"la1":30.2991,"la2":30.254,"lo1":-89.0895,"lo2":-89.0444,"dy":0.0017,"dx":0.0017,"nx":28,"ny":28,"refTime":"2025-03-25T21:00:00:Z","depth":0,"parameterNumber":3,"parameterNumberName":"V-component_of_WINDS"},"data":[0,0,0,0,0,0,0,0,0,0,0,0,0,0,0,0,0,0,0,0,0,0,0,0,0,0,0,0,0,0,0,0,0,0,0,0,0,0,0,0,0,0,0,0,0,0,0,0,0,0,0,0,0,0,0,0,0,0,-0.4241,-0.4241,0,-0.4232,-0.4232,-0.4232,-0.4233,-0.4233,-0.4233,-0.4234,-0.4224,-0.4223,-0.4223,0,0,0,0,0,0,0,0,0,0,0,0,0,-0.426,-0.4259,-0.4241,-0.4241,-0.4241,-0.4232,-0.4232,-0.4232,-0.4233,-0.4233,-0.4233,-0.4234,-0.4224,-0.4223,-0.4223,0,0,0,0,0,0,0,0,0,0,0,0,0,-0.4251,-0.4259,-0.4241,-0.4241,-0.424,-0.4232,-0.4232,-0.4232,-0.4233,-0.4233,-0.4234,-0.4234,-0.4224,-0.4223,-0.4223,-0.4214,0,0,-0.4221,-0.422,0,0,0,0,0,0,0,0,-0.4252,-0.425,-0.4241,-0.4241,-0.424,-0.4234,-0.4235,-0.4226,-0.4233,-0.4236,-0.4234,-0.4234,-0.4227,-0.4226,-0.4224,-0.4214,-0.4213,-0.4221,-0.422,-0.422,-0.422,0,0,0,0,0,0,0,-0.4252,-0.4251,-0.4237,-0.4241,-0.424,-0.4241,-0.424,-0.4233,-0.423,-0.4236,-0.4236,-0.4235,-0.4227,-0.4224,-0.4223,-0.4213,-0.4221,-0.422,-0.422,-0.422,-0.4196,-0.4196,0,0,0,0,0,0,-0.4253,-0.4251,-0.4238,-0.4237,-0.4247,-0.424,-0.4239,-0.4236,-0.423,-0.423,-0.4234,-0.4235,-0.4225,-0.4224,-0.4223,-0.4213,-0.422,-0.4219,-0.4219,-0.4196,-0.4196,-0.4196,0,0,0,0,0,0,-0.4253,-0.4252,-0.4238,-0.4244,-0.4243,-0.424,-0.4236,-0.4235,-0.4233,-0.4229,-0.4229,-0.4232,-0.4225,-0.4224,-0.4216,-0.4213,-0.4219,-0.4219,-0.4197,-0.4196,-0.4196,-0.4193,0,0,0,0,0,0,-0.4254,-0.4252,-0.4249,-0.4244,-0.4242,-0.4232,-0.4236,-0.4235,-0.4232,-0.4232,-0.4227,-0.4227,-0.4225,-0.4217,-0.4216,-0.4212,-0.4218,-0.4197,-0.4196,-0.4196,-0.4193,-0.4192,-0.4192,0,0,0,0,0,-0.4255,-0.4248,-0.4249,-0.4247,-0.4238,-0.4231,-0.423,-0.4229,-0.4232,-0.4228,-0.4226,-0.4227,-0.4213,-0.4217,-0.4215,-0.4211,-0.4197,-0.4197,-0.4196,-0.4194,-0.4193,-0.4192,0,0,0,0,0,0,-0.4252,-0.4247,-0.4248,-0.424,-0.4236,-0.4232,-0.4227,-0.4228,-0.4223,-0.4224,-0.4223,-0.4221,-0.4214,-0.4212,-0.4215,-0.4203,-0.4206,-0.4205,-0.4204,-0.4203,-0.4203,-0.4203,-0.4218,0,0,0,0,0,-0.425,-0.4245,-0.4242,-0.4235,-0.4233,-0.423,-0.4227,-0.4227,-0.4223,-0.4222,-0.4219,-0.4215,-0.421,-0.4206,-0.4201,-0.4193,-0.4192,-0.4189,-0.4188,-0.4188,-0.4187,-0.4183,-0.4182,-0.4194,-0.4194,-0.4194,0,0,-0.4247,-0.4244,-0.4241,-0.4234,-0.4231,-0.4226,-0.4229,-0.4223,-0.422,-0.4221,-0.4214,-0.4211,-0.4207,-0.4199,-0.4195,-0.4197,-0.4184,-0.4187,-0.4187,-0.4186,-0.4182,-0.4181,-0.418,-0.4194,-0.4194,-0.4194,0,0,-0.4238,-0.4235,-0.4229,-0.4226,-0.4222,-0.4221,-0.4219,-0.4215,-0.4214,-0.4207,-0.4207,-0.4203,-0.4194,-0.4191,-0.4188,-0.4179,-0.418,-0.4178,-0.4174,-0.417,-0.4169,-0.4168,-0.4165,-0.4164,-0.4177,-0.4177,-0.4177,0,-0.4234,-0.4227,-0.4226,-0.4221,-0.4218,-0.4219,-0.4213,-0.421,-0.4204,-0.4202,-0.4204,-0.4193,-0.419,-0.4182,-0.418,-0.4178,-0.4176,-0.4178,-0.4169,-0.4168,-0.4167,-0.4164,-0.4163,-0.4177,-0.4177,-0.4177,-0.4177,0,-0.4223,-0.4217,-0.4213,-0.4208,-0.4205,-0.4199,-0.4198,-0.4194,-0.4194,-0.4193,-0.4186,-0.4182,-0.4177,-0.4175,-0.4174,-0.4167,-0.4168,-0.4169,-0.4172,-0.4166,-0.4163,-0.4162,-0.4176,-0.4176,-0.4177,-0.4177,0,0,-0.4211,-0.4206,-0.4205,-0.4203,-0.4198,-0.4194,-0.4189,-0.4184,-0.4181,-0.4178,-0.4173,-0.4166,-0.4167,-0.4164,-0.4164,-0.416,-0.4154,-0.4162,-0.4162,-0.4161,-0.4145,-0.4144,-0.4143,-0.4154,-0.4154,-0.4154,-0.4146,0,-0.4202,-0.4193,-0.4192,-0.4184,-0.4179,-0.418,-0.4176,-0.4172,-0.4171,-0.4167,-0.4165,-0.416,-0.4162,-0.4161,-0.4157,-0.4155,-0.4151,-0.4156,-0.415,-0.415,-0.4151,-0.4142,-0.4141,-0.4133,-0.4145,-0.4144,-0.4144,0,-0.4191,-0.4187,-0.4178,-0.4175,-0.4173,-0.4169,-0.4165,-0.4161,-0.4157,-0.4156,-0.4153,-0.4153,-0.4148,-0.4151,-0.4144,-0.4147,-0.4145,-0.4144,-0.4144,-0.4143,-0.4147,-0.4141,-0.4131,-0.413,-0.4143,-0.4143,-0.4143,0,-0.4184,-0.4177,-0.4171,-0.4169,-0.4165,-0.4162,-0.416,-0.4157,-0.4154,-0.415,-0.4149,-0.4144,-0.4142,-0.4138,-0.4137,-0.414,-0.413,-0.4133,-0.413,-0.413,-0.4128,-0.4128,-0.4117,-0.4126,-0.4126,-0.4126,-0.4126,0,-0.4174,-0.4169,-0.4168,-0.4164,-0.4158,-0.4157,-0.4152,-0.415,-0.4147,-0.4143,-0.4144,-0.414,-0.4139,-0.4135,-0.4134,-0.4128,-0.4127,-0.4126,-0.4126,-0.4126,-0.4126,-0.4125,-0.4125,-0.4125,-0.4125,-0.4125,-0.4126,0,-0.4166,-0.4164,-0.4158,-0.4155,-0.4154,-0.415,-0.4147,-0.4144,-0.4143,-0.4138,-0.4136,-0.4135,-0.413,-0.4129,-0.4123,-0.4122,-0.4116,-0.4116,-0.4117,-0.4117,-0.4114,-0.4114,-0.4102,-0.41,-0.411,-0.4109,-0.4109,0,-0.4159,-0.4155,-0.4152,-0.415,-0.4148,-0.4144,-0.4141,-0.4141,-0.4138,-0.4134,-0.4131,-0.4127,-0.4123,-0.4116,-0.4114,-0.411,-0.411,-0.4106,-0.4109,-0.411,-0.411,-0.4111,-0.4111,-0.4105,-0.4105,-0.4105,-0.4105,0,-0.4149,-0.4149,-0.4145,-0.4142,-0.4139,-0.4135,-0.4133,-0.413,-0.413,-0.4126,-0.4122,-0.4119,-0.4114,-0.411,-0.4106,-0.4104,-0.4104,-0.4104,-0.4103,-0.4103,-0.4104,-0.4104,-0.4116,-0.4104,-0.4104,-0.4105,-0.4105,-0.4105,-0.4142,-0.4138,-0.4136,-0.4132,-0.413,-0.4127,-0.4124,-0.4123,-0.4119,-0.4115,-0.4114,-0.411,-0.4107,-0.4102,-0.41,-0.4096,-0.4097,-0.4095,-0.4095,-0.4095,-0.4095,-0.4105,-0.4095,-0.4095,-0.4095,-0.4095,-0.4095,0,-0.4131,-0.413,-0.4126,-0.4123,-0.412,-0.4121,-0.4118,-0.4115,-0.4111,-0.4109,-0.4105,-0.41,-0.4096,-0.4094,-0.409,-0.4088,-0.4088,-0.4087,-0.4087,-0.4087,-0.4094,-0.4095,-0.4087,-0.4087,-0.4087,-0.4087,-0.4087,-0.4087,-0.4126,-0.412,-0.412,-0.4114,-0.4112,-0.4108,-0.4106,-0.4104,-0.4102,-0.4097,-0.4093,-0.4092,-0.409,-0.4086,-0.4083,-0.4082,-0.4081,-0.4079,-0.4079,-0.4085,-0.4086,-0.4087,-0.4089,-0.4079,-0.4079,-0.4073,-0.4073,-0.4073]}]]